Temp
2 2 2 2 2 2 2 2 2 2 2 2 2 2 2 2 2 2 2 2 2 -1 -1 0 1 1 1 0 -0 1 1 0 1 1 3 3 3 2 3 4 3 4 4 5 5 6 6 8 9 9 9 7 8 7
2 2 2 2 2 2 2 2 2 2 2 2 2 2 2 2 2 2 2 2 2 1 -1 1 2 2 3 3 0 -1 1 0 1 -0 2 2 3 1 1 2 3 4 4 4 4 6 6 6 7 7 7 6 6 7
2 2 2 2 2 2 2 2 2 2 2 2 2 2 2 2 2 1 1 1 -0 0 0 -1 -0 2 2 2 3 0 -1 0 1 -1 -1 -1 -2 -0 -0 1 3 5 4 3 5 6 6 6 7 7 6 5 6 6
1 1 1 1 1 1 1 1 2 1 1 1 2 2 2 2 1 1 1 0 -0 -0 -3 -2 1 1 3 3 2 2 2 1 0 -1 -3 -2 -2 0 -2 1 2 4 4 4 5 6 4 6 6 7 7 6 5 5
1 1 1 1 1 1 1 1 1 1 1 1 1 1 1 1 1 1 1 1 1 0 -0 -1 1 3 3 1 2 1 0 -0 -3 -1 -2 -1 0 0 -0 -1 1 3 3 3 4 6 5 6 7 6 5 6 5 5
1 1 1 1 1 1 1 1 1 1 1 1 1 1 1 1 1 1 -1 1 -0 -0 -0 -0 -0 -1 0 1 1 -1 -1 -2 -2 -1 -1 0 0 -0 -2 1 3 3 4 5 4 5 6 6 7 6 6 6 6 6
0 1 1 1 1 1 1 1 1 1 1 1 1 1 1 1 1 1 -1 1 1 -1 -1 -2 -2 -1 -1 -1 -2 -3 -2 -2 -1 -0 -0 0 -0 2 1 1 3 4 4 4 5 5 4 4 5 5 4 5 5 5
0 0 0 0 0 0 1 1 1 0 1 0 1 0 1 1 0 -0 1 0 0 -0 -1 -1 -3 -3 -1 -5 -4 -3 -3 -1 -1 0 -1 0 0 1 0 2 3 3 3 4 4 5 5 5 5 5 4 4 3 4
0 0 0 0 0 0 0 0 0 1 0 1 1 1 1 0 0 0 -0 0 -0 -0 -1 -4 -5 -5 -2 -3 -2 -3 -2 -2 -2 -1 1 0 0 0 3 3 4 4 4 4 5 4 4 4 4 5 4 2 2 4
-0 -0 0 0 0 0 -0 0 0 0 1 1 0 0 -3 -1 -1 -0 -1 -4 -1 -1 -2 -2 -4 -4 -2 -0 -2 -1 -4 -1 -4 0 -1 -0 1 4 4 5 5 5 5 4 3 3 3 3 4 4 5 4 4 5
-0 -0 -0 -0 -0 -0 -0 -0 -0 0 0 0 -2 -4 -1 -1 -1 -7 -9 -2 -6 -6 -3 -1 -4 -2 -1 -3 -1 -1 -1 -2 -0 1 1 2 4 5 4 4 4 4 3 5 5 5 4 4 4 4 3 2 2 2
-1 -0 -0 -0 -0 -0 -0 -0 -0 -0 0 -0 -1 -1 -1 -5 -9 -7 -11 -8 -5 -3 -3 -2 -2 -3 -2 -1 -1 -1 -1 0 0 1 2 4 3 2 1 0 1 1 -1 -0 3 5 3 3 3 4 3 2 2 3
-1 -1 -0 -0 -0 -0 -0 -0 -0 -0 -0 -1 -2 -4 -4 -9 -7 -7 -8 -7 -8 -6 -5 -6 -4 -3 -3 -1 -0 -1 0 1 2 2 4 3 2 1 0 -0 -0 -0 -1 -0 2 2 3 3 4 3 2 2 3 3
-0 -0 -0 -0 -0 -0 0 0 0 -0 -1 -1 -5 -5 -7 -12 -8 -7 -6 -6 -5 -5 -5 -5 -3 -4 -3 -2 -0 1 1 1 3 4 3 2 1 0 -0 -1 -1 -1 -1 0 2 2 2 1 0 1 2 2 2 1
-1 -1 -0 -0 -0 -0 -0 -0 -0 -1 -2 -2 -4 -5 -8 -7 -12 -11 -11 -9 -5 -5 -5 -4 -4 -3 -2 -1 -0 1 2 3 3 1 1 0 -1 -0 -0 -1 -2 -2 -2 -1 -1 -0 -1 -2 -1 -2 -0 1 2 1
-1 -1 -0 -0 -0 -1 -1 -1 -1 -1 -2 -5 -8 -7 -7 -9 -9 -12 -12 -9 -6 -6 -4 -3 -2 -3 -1 0 1 3 2 1 0 -0 -1 -1 -0 -0 -1 -2 -2 -3 -3 -2 -2 -1 -1 -1 -2 -3 -2 -2 -1 -1
-1 -1 -1 -1 -1 -1 -1 -2 -2 -3 -4 -7 -5 -5 -7 -8 -8 -9 -10 -9 -6 -5 -5 -7 -3 -3 -4 -2 2 -0 -1 -1 -2 -2 -1 -1 -1 -1 -2 -2 -3 -3 -4 -3 -3 -3 -3 -3 -3 -3 -3 -4 -4 -4
-1 -1 -1 -1 -1 -1 -2 -2 -3 -5 -5 -9 -8 -7 -7 -10 -10 -12 -12 -12 -7 -6 -7 -4 -5 -4 -2 -3 -0 -2 -3 -3 -2 -2 -2 -2 -1 -2 -2 -3 -4 -4 -5 -5 -4 -4 -4 -3 -3 -4 -4 -4 -4 -4
-1 -1 -1 -1 -1 -2 -4 -5 -4 -6 -9 -10 -10 -11 -10 -8 -10 -9 -11 -8 -5 -4 -3 -6 -4 -4 -2 -3 -4 -4 -3 -3 -3 -3 -3 -1 -2 -3 -3 -4 -4 -4 -5 -4 -4 -4 -4 -4 -4 -4 -3 -3 -4 -4
-1 -1 -1 -1 -2 -2 -9 -9 -6 -5 -6 -9 -10 -9 -8 -7 -9 -9 -9 -7 -6 -4 -5 -5 -3 -3 -4 -5 -4 -5 -4 -4 -4 -3 -1 -2 -2 -3 -3 -3 -3 -4 -4 -3 -3 -3 -3 -3 -4 -3 -3 -4 -4 -5
-2 -2 -2 -2 -2 -3 -10 -11 -6 -6 -10 -10 -10 -7 -7 -8 -8 -9 -8 -6 -7 -7 -8 -7 -6 -5 -5 -5 -6 -6 -4 -4 -4 -3 -2 -2 -2 -3 -3 -4 -4 -4 -4 -4 -4 -4 -4 -5 -5 -5 -5 -6 -6 -6
-3 -2 -2 -3 -4 -6 -10 -11 -12 -11 -11 -13 -11 -9 -8 -6 -7 -8 -8 -9 -10 -9 -7 -8 -7 -7 -7 -6 -6 -5 -5 -5 -4 -4 -3 -3 -3 -3 -3 -4 -4 -4 -4 -5 -5 -5 -5 -6 -6 -6 -6 -7 -7 -7
-3 -3 -4 -5 -7 -10 -10 -13 -11 -16 -10 -13 -14 -10 -7 -7 -8 -8 -9 -10 -8 -8 -7 -7 -8 -8 -7 -6 -5 -5 -6 -5 -5 -5 -5 -5 -5 -5 -5 -5 -4 -5 -5 -6 -6 -6 -6 -6 -6 -7 -7 -7 -8 -8
-3 -6 -12 -12 -12 -9 -17 -16 -18 -16 -18 -14 -13 -10 -8 -8 -9 -9 -8 -8 -7 -7 -8 -8 -8 -7 -6 -6 -6 -6 -6 -6 -5 -6 -6 -5 -6 -6 -7 -7 -7 -7 -7 -7 -7 -7 -7 -7 -8 -8 -8 -8 -9 -9
-6 -8 -11 -11 -20 -13 -13 -15 -17 -15 -12 -16 -11 -11 -8 -9 -8 -9 -9 -9 -9 -8 -8 -9 -9 -8 -7 -7 -7 -7 -7 -8 -7 -6 -7 -5 -6 -6 -7 -8 -8 -7 -7 -7 -8 -8 -8 -8 -8 -8 -9 -9 -10 -10
-7 -11 -11 -13 -16 -11 -13 -11 -15 -13 -14 -14 -10 -8 -9 -9 -8 -8 -8 -9 -9 -9 -9 -10 -10 -9 -8 -7 -7 -7 -8 -8 -6 -7 -8 -7 -6 -5 -6 -6 -7 -8 -7 -7 -7 -8 -8 -8 -8 -8 -9 -9 -9 -9
-7 -11 -14 -9 -10 -11 -11 -11 -11 -12 -13 -11 -10 -9 -9 -8 -8 -8 -9 -10 -10 -10 -11 -11 -10 -9 -8 -8 -8 -8 -8 -8 -8 -9 -8 -8 -6 -5 -5 -7 -8 -8 -6 -6 -5 -6 -7 -9 -9 -9 -9 -9 -9 -9
-11 -12 -10 -15 -16 -16 -15 -15 -15 -14 -12 -10 -9 -9 -9 -9 -8 -10 -10 -11 -11 -11 -10 -9 -9 -9 -8 -8 -8 -7 -7 -7 -8 -8 -8 -7 -8 -8 -7 -7 -7 -5 -5 -4 -4 -5 -6 -7 -7 -8 -8 -9 -10 -9
-13 -13 -13 -17 -18 -17 -17 -14 -14 -12 -10 -11 -10 -9 -9 -10 -12 -12 -12 -12 -11 -11 -11 -10 -10 -9 -8 -8 -8 -7 -6 -6 -6 -6 -6 -7 -8 -9 -8 -7 -6 -5 -5 -6 -5 -5 -5 -6 -6 -7 -8 -9 -10 -9
-14 -14 -14 -18 -14 -13 -16 -16 -17 -17 -12 -11 -10 -10 -10 -11 -12 -12 -12 -12 -12 -12 -11 -11 -11 -10 -10 -10 -8 -8 -7 -6 -5 -6 -6 -7 -9 -9 -8 -7 -7 -7 -7 -8 -8 -9 -8 -7 -8 -8 -8 -9 -8 -8
-14 -16 -16 -16 -15 -18 -19 -18 -17 -13 -14 -14 -12 -11 -10 -10 -11 -12 -12 -12 -12 -11 -11 -12 -11 -11 -11 -11 -11 -9 -8 -8 -6 -6 -5 -7 -7 -6 -6 -5 -5 -6 -6 -6 -6 -6 -7 -7 -7 -8 -8 -9 -9 -9
-15 -17 -16 -14 -15 -18 -20 -20 -20 -18 -17 -14 -12 -12 -11 -10 -10 -12 -13 -12 -12 -12 -12 -12 -12 -12 -11 -10 -10 -9 -9 -8 -6 -6 -6 -6 -6 -6 -5 -5 -5 -5 -5 -5 -6 -6 -6 -6 -7 -8 -8 -9 -9 -9
-21 -21 -22 -19 -17 -16 -18 -18 -17 -17 -17 -16 -15 -15 -14 -13 -10 -13 -12 -13 -13 -13 -13 -11 -10 -10 -10 -9 -9 -8 -8 -8 -7 -6 -6 -5 -5 -5 -5 -5 -5 -5 -5 -5 -6 -6 -6 -7 -7 -8 -8 -8 -9 -9
Height
810 806 810 813 819 822 822 826 830 829 830 831 834 836 838 839 839 838 838 836 836 842 838 835 834 837 838 839 843 838 839 840 835 838 829 823 823 821 818 811 813 813 816 811 807 804 797 771 772 775 770 770 770 770
803 808 811 817 820 821 823 827 827 828 828 828 832 834 834 837 838 837 836 835 836 838 838 833 830 831 832 831 836 837 837 837 834 840 830 829 819 825 824 819 804 806 800 804 800 786 774 774 771 769 770 771 769 767
805 809 813 816 818 820 822 825 826 824 826 828 829 831 833 835 836 835 834 834 836 838 835 833 826 826 825 826 828 834 834 830 830 830 835 835 841 827 830 817 804 793 793 796 788 772 773 771 768 766 767 768 763 762
806 807 811 814 817 818 820 822 823 824 827 826 827 829 830 833 833 832 832 832 833 834 841 830 822 820 819 819 820 822 823 824 825 827 833 834 833 817 822 807 801 795 793 790 777 775 775 765 765 761 759 759 758 756
804 807 810 812 815 816 818 820 822 824 825 824 825 827 830 830 829 829 828 827 828 832 832 830 821 812 810 811 813 814 816 818 824 824 827 822 813 813 806 803 783 790 788 789 768 772 768 758 753 756 757 754 752 753
804 805 808 810 814 813 818 820 821 822 822 823 824 826 827 827 826 827 826 824 824 827 828 826 819 808 806 806 807 807 808 814 816 815 814 808 805 807 802 776 766 772 771 764 761 763 757 750 750 748 751 747 745 745
802 804 807 811 812 814 817 818 820 820 821 822 823 823 824 824 825 825 826 823 822 825 827 827 821 807 803 803 804 804 805 806 808 806 801 798 794 788 779 764 761 755 758 757 752 752 754 744 742 737 743 739 738 736
802 805 807 809 811 813 816 818 818 818 819 819 818 819 820 822 821 821 820 821 821 823 825 820 823 815 803 809 808 799 803 802 798 791 788 784 783 780 764 737 742 740 742 743 737 738 735 728 734 733 734 734 733 731
801 804 807 809 811 813 815 816 816 817 817 817 817 817 818 819 820 819 818 817 818 823 817 824 826 825 804 803 801 798 794 793 784 780 772 777 770 755 723 723 721 718 723 718 723 724 722 724 723 724 726 726 727 724
802 804 807 808 810 813 814 815 816 816 816 815 816 816 819 818 818 818 817 819 818 815 812 812 813 817 805 798 799 794 791 781 788 761 760 756 733 714 712 709 706 706 708 710 712 711 714 714 714 714 713 715 715 714
803 805 806 808 810 812 814 815 815 815 815 815 816 819 818 817 817 820 832 822 829 827 814 806 811 807 797 802 793 788 781 775 762 745 745 728 709 702 702 701 700 700 697 693 693 691 699 701 704 705 706 707 707 707
803 805 807 809 811 812 813 813 814 815 815 816 817 817 818 820 827 833 847 836 827 814 807 804 802 801 795 788 786 783 777 766 753 739 728 708 706 709 706 702 698 693 688 682 678 681 689 693 695 698 698 700 700 700
804 806 807 809 809 809 810 811 812 813 814 816 817 819 821 833 839 839 844 833 834 814 807 806 805 796 789 784 779 774 762 751 734 729 712 710 715 710 704 699 692 686 677 668 670 677 682 687 689 693 695 695 696 698
803 805 805 807 807 807 808 809 810 811 813 815 822 828 830 853 831 824 821 817 809 806 804 803 799 798 786 783 771 758 745 738 721 707 713 717 718 712 706 700 694 686 680 675 674 677 681 686 691 693 692 694 694 698
801 803 804 804 805 805 806 806 808 809 812 813 815 822 827 815 820 817 815 813 804 800 801 799 795 790 784 777 764 750 736 720 724 733 732 727 722 713 708 703 699 694 689 685 683 683 687 690 692 694 697 697 698 702
799 800 800 801 802 803 804 804 805 807 809 812 816 816 814 820 816 816 815 810 799 797 795 796 791 789 774 764 752 733 729 738 743 743 738 730 721 714 711 707 702 698 695 691 689 690 691 693 695 699 700 702 703 705
796 797 798 799 800 800 801 802 803 804 806 811 807 804 806 807 806 805 805 802 796 798 804 805 795 787 779 768 743 748 752 755 750 743 736 730 722 716 712 708 704 702 700 697 695 696 697 699 701 702 705 709 709 711
794 795 796 796 796 797 797 798 800 802 804 808 809 801 801 801 803 804 800 795 797 799 801 797 792 788 779 774 754 759 758 754 749 743 736 728 721 717 713 710 707 706 704 703 702 703 703 705 707 710 712 714 715 719
792 792 793 793 794 795 797 800 800 804 805 804 801 800 799 795 793 792 791 790 790 790 790 795 790 783 771 766 767 763 759 753 747 739 732 724 720 718 715 712 710 710 709 708 707 709 711 713 714 715 718 719 722 727
789 789 789 790 793 793 800 802 800 800 801 803 799 799 795 792 790 789 789 788 789 789 791 788 778 774 776 773 771 766 759 752 746 736 727 723 721 720 718 716 714 714 714 714 714 716 718 719 722 723 724 726 729 735
787 788 788 789 792 793 798 803 801 801 803 803 797 795 792 790 790 791 790 787 791 792 791 784 781 777 775 771 767 761 754 749 743 737 729 725 724 723 721 720 719 719 719 721 722 724 725 727 729 730 730 735 739 742
785 787 788 790 792 795 800 803 806 804 806 804 801 797 795 790 790 790 789 793 794 790 786 784 780 777 772 766 761 756 751 745 739 735 730 728 727 726 725 724 725 725 726 728 729 730 733 735 736 738 741 745 748 751
784 786 789 791 796 802 805 804 805 811 807 809 806 800 791 789 790 789 792 792 789 786 786 784 780 775 770 763 758 754 749 745 741 737 734 733 732 731 730 730 730 731 733 736 736 737 739 742 745 746 750 753 756 759
782 786 796 801 804 805 811 815 816 816 817 813 812 803 794 792 791 793 792 790 788 787 786 783 778 773 767 763 759 755 752 748 744 741 739 737 737 737 736 737 737 738 739 741 742 744 747 750 753 755 758 760 764 767
789 797 801 806 818 812 815 821 825 818 815 821 809 805 793 792 792 795 795 793 791 787 785 782 780 776 772 767 762 758 755 752 749 747 745 743 743 742 744 744 745 746 747 747 751 753 756 758 761 763 766 768 771 775
793 801 805 809 816 809 813 811 821 817 819 817 802 794 795 796 795 794 794 794 791 789 787 784 781 777 773 770 766 761 758 754 752 751 751 749 748 748 749 750 752 756 756 756 757 759 763 766 769 771 775 779 781 781
793 802 805 799 800 804 807 807 806 810 815 811 803 798 797 795 796 795 795 794 793 790 787 784 782 779 775 771 768 766 762 759 757 757 757 754 754 754 754 755 758 762 763 763 764 766 768 772 774 777 780 784 787 788
796 800 800 810 811 811 814 817 817 815 809 802 800 800 798 799 795 799 797 795 793 789 785 781 779 776 774 772 769 767 766 765 764 762 761 761 762 762 763 764 766 768 769 771 772 774 776 778 780 783 786 789 793 796
800 799 801 815 816 815 814 811 811 805 802 803 803 799 800 802 802 801 798 796 792 789 786 782 778 776 774 772 770 768 767 766 765 766 766 771 772 774 773 772 773 775 778 780 783 784 785 786 788 790 793 796 799 801
802 801 805 817 810 807 810 807 809 806 803 802 801 801 801 801 801 800 797 794 792 790 788 785 783 779 777 775 773 771 769 769 770 770 769 773 777 778 779 779 780 783 785 786 788 791 793 794 796 798 800 802 804 805
801 803 808 810 809 811 810 808 806 805 804 804 802 801 799 799 800 800 798 796 794 792 789 787 784 782 780 778 777 775 774 774 774 773 774 776 779 781 784 786 788 790 791 793 795 796 798 800 802 804 806 807 809 811
803 809 808 808 811 810 808 811 812 811 809 805 803 802 800 799 798 800 799 797 795 793 791 789 786 784 782 781 779 778 778 778 779 780 781 782 785 787 789 792 794 796 798 799 801 803 804 805 807 809 810 811 813 814
816 815 818 815 813 811 813 814 814 814 811 809 808 807 806 804 799 801 800 799 798 796 793 791 789 787 785 784 783 783 783 784 785 787 789 790 791 793 795 798 800 802 803 804 806 808 809 811 812 813 815 816 817 817
Wind_Speed
13 12 11 9 8 7 7 7 6 5 4 2 1 2 3 3 4 3 2 2 2 2 4 6 4 4 1 1 2 3 3 2 2 1 2 3 3 4 2 5 6 8 7 5 5 7 9 4 2 6 2 3 2 5
13 11 10 7 6 5 6 6 5 4 3 2 3 4 5 8 6 5 3 6 7 2 4 6 12 11 11 13 4 2 3 2 3 0 1 2 2 3 2 3 2 5 6 5 8 6 2 2 3 9 3 8 6 5
12 10 8 7 6 7 6 5 5 3 2 4 5 6 7 8 7 7 4 6 3 1 4 2 4 3 9 15 18 3 2 5 3 4 3 2 4 3 3 5 3 3 2 3 4 1 5 8 14 11 3 8 8 6
10 8 7 6 5 4 4 4 3 2 1 2 5 6 7 9 8 6 8 10 6 4 1 5 7 10 7 9 16 22 18 3 2 2 3 3 3 5 4 7 10 8 4 8 18 16 11 18 15 17 16 9 9 6
8 7 6 6 5 5 3 3 2 2 3 3 5 7 8 9 7 5 9 12 13 6 2 3 10 30 23 19 20 20 18 7 2 3 3 4 3 4 5 4 12 9 15 12 17 13 15 20 23 11 9 12 8 8
7 5 5 5 5 5 3 2 1 2 3 4 6 7 7 6 3 3 2 2 14 18 2 2 5 10 2 6 15 16 15 4 4 3 3 5 5 3 4 13 16 16 18 22 21 21 24 25 22 18 17 19 18 14
5 5 4 6 5 4 3 1 1 3 5 7 8 9 8 6 8 3 3 1 3 11 1 3 4 4 4 3 2 1 7 3 3 3 5 7 7 9 9 19 16 18 16 17 23 24 23 27 17 14 7 14 16 15
5 5 6 6 5 4 2 1 2 5 6 5 5 8 8 4 4 6 12 10 7 4 3 2 4 4 2 2 2 4 3 4 4 4 2 7 3 7 9 21 19 20 21 24 27 22 24 27 17 18 15 9 9 11
7 7 5 6 5 3 2 1 1 2 3 4 4 2 3 2 3 1 5 4 17 5 2 2 3 4 1 2 2 2 4 5 4 7 6 5 6 10 19 20 21 23 20 24 20 20 24 23 22 19 15 8 9 13
6 6 6 5 6 3 1 1 2 1 5 3 1 1 1 1 2 3 1 3 1 1 2 3 1 3 2 2 2 2 2 3 3 6 4 6 13 25 22 23 21 20 16 14 18 19 14 12 17 18 18 15 14 14
8 9 8 6 3 1 1 1 1 1 1 2 3 1 1 1 0 5 2 1 2 3 2 3 5 3 2 4 4 4 2 3 3 5 6 4 5 7 9 15 17 18 17 22 21 20 11 13 13 11 10 9 7 9
6 5 4 3 1 3 3 3 3 1 1 0 1 0 1 4 3 4 2 3 3 3 2 3 4 5 3 3 3 3 3 3 6 2 4 3 2 11 10 9 11 12 12 14 17 18 12 11 10 7 5 7 9 14
5 3 3 2 3 3 5 5 5 4 5 1 2 2 2 3 4 4 3 4 2 2 3 1 3 3 3 4 3 4 5 6 1 3 3 1 10 14 14 11 13 12 13 7 7 7 9 7 5 6 5 7 11 11
5 4 3 4 4 4 3 3 5 6 3 2 3 2 4 3 5 5 4 3 4 2 3 2 3 2 2 2 3 5 5 2 4 2 5 6 16 16 13 11 11 14 13 7 5 6 7 8 5 6 7 8 11 9
5 5 6 7 6 5 7 5 5 7 4 3 3 3 5 4 2 4 2 2 3 2 0 3 3 2 3 4 3 4 4 2 4 4 6 11 18 13 12 11 10 9 9 7 5 6 7 8 7 8 7 8 11 11
8 7 8 7 5 4 2 1 9 7 3 3 1 1 2 2 3 2 2 3 3 1 1 1 3 3 4 3 4 3 3 3 4 7 10 12 16 14 12 10 8 6 6 4 5 6 8 8 8 9 15 15 16 16
3 3 3 2 5 10 8 6 6 3 4 3 4 2 1 1 4 3 3 3 2 2 2 1 3 7 4 3 3 3 2 5 10 10 10 15 13 13 10 8 6 6 4 6 8 10 12 14 15 15 12 15 21 22
6 5 7 7 7 4 3 2 3 2 3 3 2 3 2 2 2 2 3 2 2 2 2 4 2 2 3 3 3 3 5 9 9 10 10 13 9 9 7 5 5 6 6 9 11 13 15 15 13 10 17 19 23 23
7 7 8 7 5 4 3 1 1 2 5 2 2 1 2 3 3 2 2 3 7 3 1 1 3 3 3 2 5 9 9 9 10 12 12 10 8 6 6 5 7 8 10 11 13 13 15 16 15 15 16 18 19 18
7 8 7 11 7 3 3 1 1 1 3 3 1 2 2 2 1 1 1 2 2 1 2 3 3 1 2 6 7 9 9 10 10 10 9 3 6 6 6 6 7 9 12 15 17 17 17 18 18 19 20 21 20 18
6 9 11 11 2 3 3 1 1 1 2 2 2 2 3 1 1 1 1 1 1 2 2 2 2 5 11 15 18 17 15 13 8 7 7 2 5 6 6 11 12 11 11 11 9 14 16 14 16 20 24 24 23 25
5 9 3 3 3 3 3 3 2 2 1 2 2 2 2 2 1 1 1 2 2 2 2 2 6 8 9 9 14 18 18 17 12 10 8 6 2 3 3 8 10 7 12 13 14 15 17 18 22 23 25 24 25 26
11 7 3 3 3 3 3 4 2 4 1 3 3 2 2 1 2 1 0 1 2 1 5 7 12 17 15 17 16 14 15 13 6 8 8 7 9 10 12 13 11 13 11 14 17 19 21 23 23 24 25 26 26 25
7 4 3 2 2 2 2 3 2 3 3 3 2 4 2 2 1 2 1 1 1 4 3 9 11 7 9 9 4 9 15 15 10 10 14 8 6 11 14 15 16 17 17 19 20 21 22 22 22 23 24 26 24 24
5 2 3 1 2 3 2 4 4 3 2 2 1 3 2 2 1 2 1 2 2 2 4 10 9 6 5 5 8 12 15 15 10 4 14 11 9 13 15 17 20 18 18 21 19 21 21 23 25 26 25 25 26 25
2 1 3 4 2 2 4 1 2 3 1 3 3 2 2 2 2 2 2 2 2 3 6 7 6 6 5 9 6 8 14 15 7 6 13 13 12 8 8 6 6 13 17 22 25 25 23 24 25 27 26 24 24 31
3 3 1 2 1 3 1 2 1 2 0 2 2 3 2 1 2 1 1 2 2 9 16 16 13 10 8 11 13 11 13 13 12 10 13 17 16 12 15 13 11 13 19 27 31 32 31 29 29 30 30 27 25 26
2 2 4 2 2 1 4 1 2 3 2 2 1 1 0 2 1 2 2 9 17 18 16 13 9 10 10 10 9 5 7 8 10 17 23 25 25 24 25 23 21 21 24 27 30 31 32 33 33 31 30 29 25 22
2 1 3 2 2 1 2 3 3 1 1 1 0 1 1 0 1 3 6 14 13 11 11 13 16 13 9 6 8 7 6 6 4 7 11 5 6 15 19 23 26 26 27 28 26 28 29 30 30 30 28 27 24 22
1 0 3 1 3 3 3 2 2 2 2 1 2 0 1 2 1 6 11 11 13 12 12 11 12 13 11 11 10 11 11 9 8 4 5 6 10 18 23 26 28 28 28 30 30 27 26 28 27 27 26 24 22 21
1 2 3 2 2 2 2 3 3 3 2 1 2 1 1 0 1 3 12 11 10 10 12 15 14 15 14 13 11 9 8 10 10 8 21 26 24 23 23 23 24 25 26 27 27 27 27 26 26 24 23 22 18 17
2 2 3 2 2 3 3 2 1 1 2 1 1 2 1 1 1 3 11 14 10 13 12 14 14 15 14 10 7 5 6 14 16 19 22 23 23 23 24 24 23 24 25 25 25 24 24 24 23 21 20 18 16 15
2 2 2 2 2 2 2 2 4 4 2 2 2 2 1 1 1 2 8 11 8 9 14 13 11 10 10 11 12 14 16 17 16 18 19 20 22 23 23 23 23 22 23 23 22 21 21 21 20 18 17 15 14 13
Wind_Direction
153 135 135 137 145 145 142 155 168 156 154 152 294 307 310 300 279 250 216 185 154 169 268 199 203 175 113 132 156 278 11 338 332 237 234 242 226 236 257 225 186 174 183 197 207 223 262 229 89 186 205 333 286 295
148 151 148 155 162 164 171 179 173 168 173 200 253 276 284 278 258 241 229 219 219 212 251 264 258 261 242 229 166 205 206 204 234 277 240 335 324 304 203 256 290 246 201 195 195 210 227 306 280 278 247 278 279 266
149 152 158 169 182 192 184 189 188 184 238 241 258 271 286 289 267 227 231 189 154 233 275 312 262 290 253 240 235 171 236 211 224 184 188 238 232 155 219 233 268 278 261 231 318 182 277 311 307 300 274 232 253 263
153 152 161 171 173 166 176 181 167 159 241 296 300 292 284 283 284 242 224 220 210 148 206 278 264 266 246 232 230 222 231 186 166 159 188 208 199 199 215 244 238 235 288 289 276 284 286 273 265 265 272 285 277 279
151 153 160 163 164 161 147 159 171 225 290 301 294 289 278 280 284 261 253 254 226 180 214 269 308 284 276 256 242 231 223 224 176 232 215 233 241 236 235 244 248 211 232 235 253 249 257 269 272 268 283 280 280 300
152 152 159 163 174 150 167 184 215 263 278 289 286 281 276 279 260 184 324 281 233 218 264 265 265 273 356 236 236 230 219 207 185 186 230 228 228 228 241 253 250 229 226 234 252 252 253 264 277 275 273 275 280 276
148 153 174 178 170 144 163 191 238 297 295 283 275 271 278 274 209 189 202 223 107 168 278 299 288 274 288 237 264 256 189 199 194 220 214 231 219 212 239 256 252 244 245 239 241 248 257 257 250 266 240 261 268 265
165 169 168 166 159 149 166 204 300 300 289 296 287 263 259 254 229 244 251 236 186 156 203 245 262 325 189 280 264 182 192 202 215 235 232 232 243 232 250 249 258 252 245 241 243 240 244 256 260 255 256 254 255 262
142 148 132 144 142 147 129 307 330 43 342 304 298 284 197 175 213 232 310 249 208 210 240 180 183 264 46 256 251 284 200 218 215 217 221 195 217 228 245 247 246 246 234 245 246 241 243 247 254 253 245 240 236 261
139 152 144 151 133 130 106 42 75 10 340 329 232 112 22 209 265 280 352 35 262 281 295 230 157 267 129 306 274 286 233 229 245 223 172 220 241 246 254 257 262 264 254 239 239 243 235 237 239 244 243 243 242 251
117 119 124 123 121 136 181 208 92 37 47 53 46 188 323 285 354 34 28 211 323 307 241 248 192 239 233 200 244 219 268 268 261 237 193 234 262 261 284 260 264 272 272 256 237 237 219 221 233 232 241 228 225 223
131 124 131 138 207 253 243 237 192 161 82 82 82 45 37 37 37 75 272 320 208 244 243 207 228 205 260 208 246 202 244 256 255 194 236 239 35 334 325 314 292 280 270 256 243 219 204 208 204 218 219 213 225 227
163 171 190 234 295 284 240 238 222 202 183 199 93 62 66 317 38 142 240 281 291 236 252 311 292 226 315 221 241 228 235 233 269 233 253 77 341 336 330 326 322 318 313 249 163 168 178 172 205 248 235 226 184 156
199 212 244 267 286 310 279 224 211 171 151 180 140 241 172 287 238 197 197 201 241 228 266 222 249 230 251 272 231 261 232 272 272 258 19 333 334 327 322 326 333 338 348 7 107 142 133 127 140 119 114 134 130 131
232 249 260 271 283 292 302 279 199 182 160 215 164 224 216 231 243 233 235 320 245 230 292 314 282 242 255 255 247 250 247 282 30 2 307 319 315 322 326 330 334 341 344 4 29 83 100 114 107 88 92 107 116 127
251 265 263 258 268 202 267 261 176 171 192 167 159 180 220 37 282 309 206 254 237 231 306 277 269 278 253 248 238 259 9 39 335 318 309 310 313 322 323 325 329 338 345 27 47 69 89 89 95 96 87 91 101 111
244 226 156 248 269 287 252 208 172 183 183 168 242 245 196 249 221 217 167 235 186 76 244 73 289 233 307 274 283 19 35 320 312 312 309 309 311 316 317 318 344 351 11 41 65 69 82 97 99 90 83 76 85 86
225 237 267 282 291 211 128 151 144 128 228 231 200 224 193 209 209 253 242 240 128 192 129 225 276 274 267 262 291 8 324 317 310 306 303 303 313 318 323 330 7 26 49 62 77 80 81 87 89 91 94 96 88 84
252 271 267 249 203 143 120 64 69 208 232 220 279 253 217 255 237 235 225 233 215 207 231 352 257 237 247 343 332 322 314 311 309 310 303 297 318 332 350 25 54 56 61 66 75 78 78 81 89 91 93 93 87 88
262 260 248 187 166 139 50 345 38 255 271 254 258 251 225 221 226 218 231 203 161 183 208 228 237 331 316 306 305 295 293 299 302 305 313 325 355 12 27 45 51 70 78 81 84 87 87 81 78 83 86 89 89 85
160 138 155 138 105 67 99 138 228 263 291 254 279 313 270 355 293 242 228 145 96 212 250 249 275 300 305 294 290 287 291 297 296 293 301 322 6 28 49 60 61 66 76 77 82 82 78 78 82 86 86 83 86 87
154 167 118 103 82 53 77 21 175 292 225 242 333 325 275 288 271 259 156 78 228 248 269 302 308 307 303 299 300 303 304 307 311 324 353 20 15 16 38 66 79 75 72 75 83 88 86 85 87 88 91 90 91 90
145 138 95 75 76 54 251 355 54 359 59 285 356 342 253 258 240 22 6 222 251 273 318 303 297 299 289 295 310 326 343 337 346 356 13 29 48 50 59 55 80 94 85 71 85 87 88 92 92 91 94 92 92 88
116 72 84 82 64 243 6 13 12 12 4 14 21 294 294 256 324 56 221 274 310 305 315 323 329 323 330 338 339 344 353 349 358 21 26 39 60 50 61 64 69 77 90 96 90 88 88 90 96 93 94 94 90 88
86 332 96 301 334 61 39 355 344 43 265 272 354 307 316 353 12 27 294 287 306 306 335 336 335 334 324 322 331 339 353 0 349 13 24 41 74 82 72 69 70 79 101 98 92 94 92 96 96 96 95 97 97 93
134 295 109 192 266 138 185 179 205 219 200 320 254 293 4 61 33 285 318 313 320 321 336 330 326 323 329 340 334 345 344 352 9 50 31 45 55 79 93 92 87 64 102 113 113 104 100 101 101 99 95 95 98 102
178 236 279 257 138 117 66 6 31 119 225 232 295 331 20 6 290 296 349 23 320 314 313 313 304 300 311 323 341 10 33 52 70 77 76 73 74 90 109 102 93 108 128 125 123 121 116 111 107 106 107 105 104 106
137 173 171 231 72 22 140 92 146 196 236 270 337 341 238 204 298 337 315 325 330 331 336 337 335 334 329 337 346 25 61 44 81 84 85 82 86 88 90 95 103 120 122 123 122 121 118 116 114 112 109 105 104 101
93 121 104 51 31 44 189 176 204 237 5 99 175 287 251 69 321 316 306 328 342 352 345 350 357 11 20 30 35 45 39 43 96 117 93 82 67 62 97 109 112 113 113 110 110 111 113 112 110 108 106 105 103 100
205 5 98 74 127 218 243 172 221 266 275 316 306 228 202 176 169 3 1 1 0 353 355 356 5 13 3 6 7 37 52 79 112 78 117 120 122 120 118 118 118 118 119 117 113 110 108 107 106 103 101 100 97 94
69 70 73 61 178 253 238 308 298 268 355 332 311 234 326 56 199 3 10 5 3 13 14 8 12 19 12 8 5 7 35 69 103 107 128 128 130 128 126 125 126 126 123 120 118 116 115 110 106 104 100 97 93 89
27 85 128 109 278 305 18 51 11 46 326 24 353 337 318 259 256 20 6 9 12 13 12 10 3 356 10 19 35 57 108 118 119 127 128 127 127 127 127 126 126 125 122 119 116 115 111 107 104 101 98 93 88 84
50 55 47 76 44 7 335 54 16 349 13 23 346 350 345 325 298 336 2 2 357 352 355 0 9 17 35 60 79 94 105 105 117 123 125 125 125 127 128 128 128 125 122 117 114 112 108 104 100 96 92 89 84 77